Regional Weather Roundup
Issued by NWS

Home | Current Version | Previous Version | Graphics & Text | Print | Product List | Glossary On
Versions: 1 2 3 4 5 6 7 8 9 10 11 12 13 14 15 16 17 18 19 20 21 22 23 24 25 26 27 28 29 30 31 32 33 34 35 36 37 38 39 40 41 42 43 44 45 46 47 48 49 50
000
ASUS43 KMPX 260110
RWRMN
WEATHER ROUNDUP FOR MINNESOTA
NATIONAL WEATHER SERVICE TWIN CITIES/CHANHASSEN MN
800 PM CDT MON MAY 25 2015


NOTE: "FAIR" INDICATES FEW OR NO CLOUDS BELOW 12,000 FEET WITH NO
SIGNIFICANT WEATHER AND/OR OBSTRUCTIONS TO VISIBILITY. N/A MEANS
CURRENT SKY AND/OR WEATHER CONDITIONS ARE NOT AVAILABLE.

MNZ060>063-068>070-260200-
   Twin Cities Metro

CITY           SKY/WX    TMP DP  RH WIND       PRES   REMARKS
TWIN CITIES    MOCLDY    72  58  61 SW8       29.72S
ST PAUL        PTCLDY    71  58  63 SW6       29.73R
CRYSTAL        PTCLDY    70  57  63 W9G17     29.70F
BLAINE         PTCLDY    72  59  64 SW7       29.72S
LAKEVILLE      MOCLDY    70  61  73 W3        29.73S
EDEN PRAIRIE   PTCLDY    69  58  67 W8        29.71F
SOUTH ST PAUL  PTCLDY    72  58  62 W5        29.72S
LAKE ELMO      FAIR      70  59  68 SW5       29.74S
$$
MNZ001>005-007-008-013>017-022>024-027-028-260200-
   Northwest Minnesota

CITY           SKY/WX    TMP DP  RH WIND       PRES   REMARKS
BEMIDJI        DRIZZLE   56  54  92 E6        29.81S
HALLOCK        MOSUNNY   75  45  33 S10       29.74S
ROSEAU         CLOUDY    72  52  49 SW9       29.77S
WARROAD        CLOUDY    68  55  64 S7        29.78R
THIEF RVR FALL CLOUDY    68  46  45 S9        29.81R
CROOKSTON      MOCLDY    70  46  43 S10       29.80S
FOSSTON        CLOUDY    59  55  88 CALM      29.84R
DETROIT LAKES  CLOUDY    59  52  77 NE13      29.82S
MOORHEAD       CLOUDY    63  54  72 CALM      29.84R
PARK RAPIDS    LGT RAIN  58  53  84 NE10G16   29.79S
MAHNOMEN       CLOUDY    58  53  83 N9        29.82R
$$
MNZ006-009>011-018-025>026-260200-
   North Central Minnesota

CITY           SKY/WX    TMP DP  RH WIND       PRES   REMARKS
BAUDETTE       CLOUDY    64  54  69 S9        29.78R
FLAG ISLAND    CLOUDY    61  55  82 SE5       29.75S
INTL FALLS     CLOUDY    57  53  86 CALM      29.80S
WASKISH        CLOUDY    59  54  82 CALM      29.81S
BIG FORK       LGT RAIN  55  54  94 CALM      29.81S
LONGVILLE      LGT RAIN  55  54  94 N7        29.78R
GRAND RAPIDS   CLOUDY    55  52  88 N9        29.78R
CRANE LAKE     RAIN      54  54 100 CALM      29.81S
COOK           LGT RAIN  55  55 100 N3        29.80R
WALKER         LGT RAIN  55  54  94 NE7       29.80S
$$
MNZ012-019>021-037-260200-
   Northeast Minnesota

CITY           SKY/WX    TMP DP  RH WIND       PRES   REMARKS
DULUTH         LGT RAIN  50  48  93 NE7       29.74S FOG
ELY            LGT RAIN  55  52  88 NE5       29.77S
HIBBING        LGT RAIN  56  51  84 NE9       29.77R
EVELETH        DRIZZLE   54  52  94 N8        29.77S
DULUTH HARBOR  CLOUDY    45  43  93 NE8       29.76S
TWO HARBORS    DRIZZLE   54  48  82 NE3       29.73F
GRAND MARAIS     N/A     46  45  96 VRB3      29.73S
G MARAIS ARPRT LGT RAIN  52  48  87 N10G16    29.75S
$$
MNZ029>031-032-039>041-046>048-054>057-064-260200-
   West Central Minnesota

CITY           SKY/WX    TMP DP  RH WIND       PRES   REMARKS
FERGUS FALLS   CLOUDY    61  52  72 NE8       29.82R
WHEATON        PTCLDY    59  52  77 N10       29.82S
MORRIS         CLOUDY    61  54  77 N15G21    29.76F
ALEXANDRIA     CLOUDY    57  53  86 N14       29.76R
ELBOW LAKE     CLOUDY    59  52  78 NE16G22   29.78S
WADENA         CLOUDY    55  52  88 N18G24    29.76R
GLENWOOD       MOCLDY    59  55  88 N13       29.75S
APPLETON       PTCLDY    64  54  68 N20       29.73F
BENSON         PTCLDY    63  54  72 N12       29.73F
ORTONVILLE     PTCLDY    61  54  77 N20       29.76F
MADISON        PTCLDY    63  55  77 NW18      29.74F
WILLMAR        FAIR      64  57  77 W13       29.73F
$$
MNZ033>034-036-042>043-049>051-058-059-260200-
   Central Minnesota

CITY           SKY/WX    TMP DP  RH WIND       PRES   REMARKS
ST CLOUD       CLEAR     65  57  75 SW10      29.70S
SAUK CENTRE    FAIR      61  56  84 NW10      29.72F
PAYNESVILLE    PTCLDY    61  55  82 SW12      29.72F
AITKIN         DRIZZLE   57  52  82 N5        29.72R
PINE RIVER     CLOUDY    54  54 100 N12G17    29.80S
BRAINERD       LGT RAIN  56  55  97 N15       29.73R FOG
STAPLES        LGT RAIN  54  54 100 NE12G22   29.75R
LONG PRAIRIE   CLOUDY    57  54  88 NW9       29.73S
LITTLE FALLS   CLOUDY    61  55  82 CALM      29.71S
LITCHFIELD     PTCLDY    66  59  77 W10G16    29.72F
BUFFALO        CLEAR     67  56  69 SW5       29.72F
MAPLE LAKE     CLEAR     67  59  74 SW6       29.72F
$$
MNZ037-044-045-052-053-260200-
   East Central Minnesota

CITY           SKY/WX    TMP DP  RH WIND       PRES   REMARKS
PRINCETON      CLEAR     68  57  68 SW5       29.71S
MORA           PTCLDY    64  57  77 CALM      29.72S
CAMBRIDGE      MOCLDY    70  55  60 S6        29.70S
RUSH CITY      MOCLDY    67  57  72 SW7       29.72R
MOOSE LAKE     RAIN      52  52 100 NE5       29.71S
HINCKLEY       CLOUDY    63  59  88 SW5       29.71S
CLOQUET        DRIZZLE   48  46  93 E3        29.75R
MCGREGOR       CLOUDY    55  54  94 CALM      29.74R
$$
MNZ071>073-080-081-089-090-097-098-260200-
   Southwest Minnesota

CITY           SKY/WX    TMP DP  RH WIND       PRES   REMARKS
MONTEVIDEO     PTCLDY    64  57  77 N9        29.72F
GRANITE FALLS  PTCLDY    63  56  78 NW15      29.72F
CANBY          MOCLDY    60  55  84 NW13      29.75F
MARSHALL       MOCLDY    64  54  68 NW14      29.76R
REDWOOD FALLS  PTCLDY    66  57  72 NW8       29.72F
OLIVIA         PTCLDY    63  54  72 NW9       29.70F
PIPESTONE      MOCLDY    66  57  72 NW8       29.76R
WINDOM         MOCLDY    70  59  68 CALM      29.77R
WORTHINGTON    MOCLDY    66  57  72 N3        29.77R
JACKSON        PTCLDY    70  61  73 W5        29.76F
TRACY          MOCLDY    68  59  73 NW7       29.77R
SLAYTON        MOCLDY    66  59  78 CALM      29.79R
$$
MNZ065>067-074>077-082>085-091>093-260200-
   South Central Minnesota

CITY           SKY/WX    TMP DP  RH WIND       PRES   REMARKS
MANKATO        PTCLDY    70  61  73 NW6       29.75S
NEW ULM        PTCLDY    68  57  68 NW7       29.74R
ST JAMES       PTCLDY    72  63  73 NW5       29.76R
FAIRMONT       PTCLDY    73  54  49 W8        29.75S
GLENCOE        PTCLDY    69  61  76 W6        29.73S
FARIBAULT      MOCLDY    66  64  94 CALM      29.75F
OWATONNA       PTCLDY    66  59  77 CALM      29.76R
WASECA         MOCLDY    64  59  82 SW3       29.77R
ALBERT LEA     CLEAR     73  57  56 S7        29.77R
$$
MNZ078>079-086>088-094>096-260200-
   Southeast Minnesota

CITY           SKY/WX    TMP DP  RH WIND       PRES   REMARKS
ROCHESTER      CLEAR     71  60  68 SW12      29.78R
RED WING       MOCLDY    66  63  88 CALM      29.73S
STANTON        CLOUDY    69  63  83 S6        29.73S
DODGE CENTER   PTCLDY    72  63  73 S9        29.76S THUNDER
WINONA         CLEAR     73  61  64 CALM      29.77R
AUSTIN         CLEAR     72  59  64 SW10      29.78R
PRESTON        CLEAR     71  59  65 SW9       29.79R
$$
ABBREVIATIONS USED IN REMARKS
   TC - TEMPERATURES IN CELSIUS
  WCI - WIND CHILL INDEX
   HX - HEAT INDEX
  VSB - VISIBILITY
$$



USA.gov is the U.S. government's official web portal to all federal, state and local government web resources and services.